This demonstration page uses our WeatherBlox Daily Observations layout. Learn more.

Left ArrowRight Arrow

Hourly Observations for April 17, 2017

Temp ( °F °C ) Dew Point ( °F °C ) Humidity (%) Winds ( mph kmh ) Pressure ( in mb ) Visibility ( mi km ) Precip ( " mm )
12:53 am 00:53 Clear 28 -2.2 22 -5.6 78 78 ENE 16 26 30.14 1021 10 16 0.00 0.00
1:53 am 01:53 Clear 26 -3.3 21 -6.1 81 81 ENE 15 24 30.10 1019 10 16 0.00 0.00
2:53 am 02:53 Clear 25 -3.9 20 -6.7 81 81 ENE 16 26 30.07 1018 10 16 0.00 0.00
3:53 am 03:53 Clear 25 -3.9 20 -6.7 81 81 E 22 35 30.03 1017 10 16 0.00 0.00
4:53 am 04:53 Cloudy 26 -3.3 21 -6.1 81 81 ENE 18 30 29.99 1016 10 16 0.00 0.00
5:53 am 05:53 Cloudy 25 -3.9 20 -6.7 81 81 ENE 16 26 29.96 1015 10 16 0.00 0.00
6:53 am 06:53 Cloudy 25 -3.9 20 -6.7 81 81 ENE 16 26 29.94 1014 10 16 0.00 0.00
7:53 am 07:53 Sunny 27 -2.8 21 -6.1 78 78 ENE 21 33 29.92 1013 10 16 0.00 0.00
8:53 am 08:53 Cloudy 32 0 23 -5 69 69 ENE 21 33 29.89 1012 10 16 0.00 0.00
9:53 am 09:53 Mostly Cloudy 33 0.6 24 -4.4 70 70 ENE 17 28 29.86 1011 10 16 0.00 0.00
10:53 am 10:53 Cloudy 35 1.7 25 -3.9 67 67 E 16 26 29.85 1011 10 16 0.00 0.00
11:53 am 11:53 Cloudy with Light Rain 36 2.2 29 -1.7 76 76 ENE 13 20 29.83 1010 10 16 0.01 0.25
12:53 pm 12:53 Cloudy with Light Rain 37 2.8 32 0 82 82 E 5 7 29.85 1011 10 16 0.01 0.25
1:19 pm 13:19 Cloudy with Light Snow 36 2.2 33 0.6 89 89 SSW 9 15 29.85 1011 3 5 0.01 0.25
1:33 pm 13:33 Cloudy with Light Snow 34 1.1 33 0.6 97 97 SW 12 19 29.88 1012 2 3 0.02 0.51
1:42 pm 13:42 Mostly Cloudy with Light Snow 34 1 32 0 93 93 W 8 13 29.88 1012 1 2 0.00 0.00
1:53 pm 13:53 Cloudy with Light Snow 33 0.6 32 0 96 96 W 9 15 29.87 1012 3 4 0.06 1.52
2:11 pm 14:11 Cloudy with Light Snow 33 0.6 33 0.6 100 100 W 5 7 29.88 1012 3 5 0.02 0.51
2:20 pm 14:20 Cloudy with Light Snow 34 1 34 1 100 100 SW 5 7 29.88 1012 3 4 0.00 0.00
2:30 pm 14:30 Cloudy with Light Snow 34 1 34 1 100 100 Calm 29.88 1012 1 2 0.00 0.00
2:53 pm 14:53 Cloudy with Light Snow 33 0.6 33 0.6 100 100 SSW 5 7 29.89 1012 1 1 0.07 1.78
3:31 pm 15:31 Cloudy with Light Snow 32 0 32 0 100 100 WSW 6 9 29.88 1012 1 1 0.05 1.27
3:49 pm 15:49 Cloudy with Light Snow 34 1 32 0 93 93 WSW 7 11 29.88 1012 1 2 0.07 1.78
3:53 pm 15:53 Cloudy with Light Snow 33 0.6 32 0 96 96 WSW 6 9 29.90 1012 1 2 0.07 1.78
4:00 pm 16:00 Cloudy with Light Snow 34 1 34 1 100 100 WSW 6 9 29.88 1012 2 3 0.00 0.00
4:05 pm 16:05 Cloudy with Light Snow 33 0.6 33 0.6 100 100 WSW 5 7 29.88 1012 3 5 0.00 0.03
4:16 pm 16:16 Cloudy with Light Snow 34 1.1 33 0.6 97 97 WSW 6 9 29.91 1013 5 8 0.01 0.25
4:37 pm 16:37 Cloudy with Light Wintry Mix 34 1.1 34 1.1 100 100 SW 6 9 29.91 1013 8 13 0.01 0.25
4:53 pm 16:53 Cloudy with Light Rain 35 1.7 35 1.7 100 100 WSW 6 9 29.89 1012 8 13 0.01 0.25
5:27 pm 17:27 Cloudy 36 2.2 35 1.7 97 97 W 5 7 29.88 1012 10 16 0.00 0.03
5:53 pm 17:53 Cloudy 37 2.8 35 1.7 93 93 WSW 6 9 29.90 1013 10 16 0.00 0.03
6:51 pm 18:51 Cloudy 37 3 36 2 93 93 W 7 11 29.88 1012 10 16 0.00 0.00
6:53 pm 18:53 Cloudy 38 3.3 36 2.2 93 93 W 6 9 29.91 1013 10 16 0.00 0.00
7:04 pm 19:04 Cloudy 37 3 36 2 93 93 W 8 13 29.88 1012 10 16 0.00 0.00
7:53 pm 19:53 Cloudy 38 3.3 36 2.2 93 93 W 8 13 29.92 1013 10 16 0.00 0.00
8:36 pm 20:36 Cloudy 37 2.8 36 2.2 96 96 WNW 6 9 29.91 1013 10 16 0.00 0.00
8:53 pm 20:53 Cloudy 37 2.8 36 2.2 96 96 WNW 6 9 29.93 1014 10 16 0.00 0.00
9:53 pm 21:53 Cloudy 37 2.8 36 2.2 96 96 WSW 3 6 29.95 1014 10 16 0.00 0.00
10:00 pm 22:00 Cloudy 37 3 36 2 93 93 SW 6 9 29.94 1014 10 16 0.00 0.00
10:53 pm 22:53 Partly Cloudy 36 2.2 35 1.7 97 97 SSW 3 6 29.94 1014 10 16 0.00 0.00
11:53 pm 23:53 Clear 33 0.6 32 0 96 96 Calm 29.93 1013 10 16 0.00 0.00

Powered by AerisWeather